Regional Weather Roundup
Issued by NWS Bismarck, ND

Home | Current Version | Previous Version | Text Only | Print | Product List | Glossary On
Versions: 1 2 3 4 5 6 7 8 9 10 11 12 13 14 15 16 17 18 19 20 21 22 23 24 25 26 27 28 29 30 31 32 33 34 35 36 37 38 39 40 41 42 43 44 45 46 47 48 49 50
000
ASUS43 KBIS 250902
RWRBIS

NWR BROADCAST TEXT
NATIONAL WEATHER SERVICE BISMARCK ND
300 AM CST SAT FEB 25 2017

NOTE: "FAIR" INDICATES FEW OR NO CLOUDS BELOW 12,000 FEET WITH NO
SIGNIFICANT WEATHER AND/OR OBSTRUCTIONS TO VISIBILITY.


CITY           SKY/WX    TMP DP  RH WIND       PRES   REMARKS
WILLISTON      CLOUDY    24  21  88 N5        29.97F WCI  18
MINOT          FLURRIES  25  20  81 SW13      29.93F WCI  14
MINOT AFB      NOT AVBL
BISMARCK       CLOUDY    15  12  88 CALM      30.00F
DICKINSON      CLOUDY    22  16  78 SW10      29.92F WCI  11
GARRISON         N/A     18  14  84 CALM      29.96F
HETTINGER ARPT CLOUDY    20  14  77 CALM      29.97F
JAMESTOWN      FAIR      14  11  87 CALM      29.99F
CARRINGTON     CLOUDY    19  16  86 W7        30.00F WCI  10
HAZEN          CLOUDY   N/A N/A N/A W3        30.00F
MANDAN         PTSUNNY   23  18  80 SW9       29.99F WCI  13
STANLEY        CLOUDY    21  21 100 NW12      29.95F WCI   9
$$

CITY           SKY/WX    TMP DP  RH WIND       PRES   REMARKS
GRAND FORKS    MOCLDY    17   9  70 CALM      30.02F
GRAND FORKS AF MOCLDY    15  12  86 SW6       30.01F WCI   7
DEVILS LAKE    CLOUDY    16  13  88 SW6       29.96F WCI   7
FARGO          FAIR      15  12  88 CALM      30.04F
CAVALIER       FLURRIES  16  14  93 S6        29.99F WCI   7
GRAFTON        PTSUNNY   14  14 100 S6        30.03F WCI   5
GWINNER        FAIR      18  16  93 W6        30.04F WCI   9
ROLLA          FAIR      16  14  93 W13       29.91F WCI   2
$$

CITY           SKY/WX    TMP DP  RH WIND       PRES   REMARKS
ABERDEEN       FAIR      12   8  84 SW6       30.06F WCI   3
MOBRIDGE       CLOUDY    23  15  71 S5        30.01F WCI  17
BUFFALO          N/A     22  17  81 W5        29.88F WCI  16
RAPID CITY     MOCLDY    10   7  87 NW3       29.97F
GLASGOW        FOG       20  19  96 NW5       29.99F VSB 1/4 WCI  13
SIDNEY         FLURRIES  25  23  92 NW3       29.98F
WOLF POINT     MOCLDY    19  14  81 W5        30.00F WCI  12
GLENDIVE       CLOUDY    29  22  75 SW5       29.95F
MILES CITY     CLOUDY    29  24  82 W7        29.98F
BAKER          CLOUDY    23  17  78 SW8       29.95F WCI  14
$$

CITY           SKY/WX    TMP DP  RH WIND       PRES   REMARKS
BILLINGS       CLOUDY    23  19  85 SW9       29.99F WCI  13
GREAT FALLS    FAIR      18  14  84 SW9       29.98F WCI   7
$$





USA.gov is the U.S. government's official web portal to all federal, state and local government web resources and services.